Time,TemperatureF,DewpointF,PressureIn,WindDirection,WindDirectionDegrees,WindSpeedMPH,WindSpeedGustMPH,Humidity,HourlyPrecipIn,Conditions,Clouds,dailyrainin,SoftwareType,DateUTC
2013-03-15 00:00:00,44.0,37.6,30.07,SSE,157,0.0,2.0,78,0.00,,,0.00,VWS V14.00,2013-03-15 05:00:00,
2013-03-15 00:05:00,43.9,37.5,30.07,SSE,158,0.0,3.0,78,0.00,,,0.00,VWS V14.00,2013-03-15 05:05:00,
2013-03-15 00:09:00,43.8,37.4,30.07,SSE,164,0.0,5.0,78,0.00,,,0.00,VWS V14.00,2013-03-15 05:09:00,
2013-03-15 00:14:00,43.7,37.3,30.07,South,169,0.0,5.0,78,0.00,,,0.00,VWS V14.00,2013-03-15 05:14:00,
2013-03-15 00:19:00,43.6,37.2,30.07,South,171,2.0,5.0,78,0.00,,,0.00,VWS V14.00,2013-03-15 05:19:00,
2013-03-15 00:24:00,43.4,37.0,30.07,South,171,0.0,5.0,78,0.00,,,0.00,VWS V14.00,2013-03-15 05:24:00,
2013-03-15 00:29:00,43.3,36.9,30.06,South,172,0.0,5.0,78,0.00,,,0.00,VWS V14.00,2013-03-15 05:29:00,
2013-03-15 00:34:00,43.2,36.8,30.06,South,172,0.0,5.0,78,0.00,,,0.00,VWS V14.00,2013-03-15 05:34:00,
2013-03-15 00:39:00,43.1,36.7,30.05,South,169,0.0,4.0,78,0.00,,,0.00,VWS V14.00,2013-03-15 05:39:00,
2013-03-15 00:44:00,43.1,36.7,30.05,South,169,0.0,4.0,78,0.00,,,0.00,VWS V14.00,2013-03-15 05:44:00,
2013-03-15 00:49:00,43.0,36.6,30.05,SSE,165,0.0,4.0,78,0.00,,,0.00,VWS V14.00,2013-03-15 05:49:00,
2013-03-15 00:54:00,42.9,36.5,30.05,SSE,165,0.0,4.0,78,0.00,,,0.00,VWS V14.00,2013-03-15 05:54:00,
2013-03-15 00:59:00,42.8,36.4,30.05,SSE,165,0.0,4.0,78,0.00,,,0.00,VWS V14.00,2013-03-15 05:59:00,
2013-03-15 01:04:00,42.8,36.8,30.05,South,182,0.0,4.0,79,0.00,,,0.00,VWS V14.00,2013-03-15 06:04:00,
2013-03-15 01:09:00,42.7,36.7,30.04,South,178,0.0,2.0,79,0.00,,,0.00,VWS V14.00,2013-03-15 06:09:00,
2013-03-15 01:14:00,42.7,36.3,30.04,South,178,0.0,2.0,78,0.00,,,0.00,VWS V14.00,2013-03-15 06:14:00,
2013-03-15 01:19:00,42.7,36.3,30.03,South,175,0.0,3.0,78,0.00,,,0.00,VWS V14.00,2013-03-15 06:19:00,
2013-03-15 01:24:00,42.6,36.2,30.03,South,175,0.0,3.0,78,0.00,,,0.00,VWS V14.00,2013-03-15 06:24:00,
2013-03-15 01:29:00,42.5,36.1,30.02,SSE,168,3.0,3.0,78,0.00,,,0.00,VWS V14.00,2013-03-15 06:29:00,
2013-03-15 01:34:00,42.3,35.9,30.02,SSE,167,3.0,4.0,78,0.00,,,0.00,VWS V14.00,2013-03-15 06:34:00,
2013-03-15 01:39:00,42.2,35.8,30.02,South,169,2.0,4.0,78,0.00,,,0.00,VWS V14.00,2013-03-15 06:39:00,
2013-03-15 01:44:00,42.1,36.1,30.02,SSE,161,2.0,4.0,79,0.00,,,0.00,VWS V14.00,2013-03-15 06:44:00,
2013-03-15 01:49:00,42.0,36.0,30.01,SSE,160,0.0,4.0,79,0.00,,,0.00,VWS V14.00,2013-03-15 06:49:00,
2013-03-15 01:54:00,41.9,35.9,30.02,SSE,160,0.0,4.0,79,0.00,,,0.00,VWS V14.00,2013-03-15 06:54:00,
2013-03-15 01:59:00,41.8,35.8,30.01,SSE,160,0.0,4.0,79,0.00,,,0.00,VWS V14.00,2013-03-15 06:59:00,
2013-03-15 02:04:00,41.8,35.8,30.01,South,172,3.0,5.0,79,0.00,,,0.00,VWS V14.00,2013-03-15 07:04:00,
2013-03-15 02:09:00,41.8,35.8,30.01,SSE,166,0.0,5.0,79,0.00,,,0.00,VWS V14.00,2013-03-15 07:09:00,
2013-03-15 02:14:00,41.9,35.9,30.01,SSE,164,1.0,5.0,79,0.00,,,0.00,VWS V14.00,2013-03-15 07:14:00,
2013-03-15 02:19:00,42.0,36.0,30.01,South,169,2.0,5.0,79,0.00,,,0.00,VWS V14.00,2013-03-15 07:19:00,
2013-03-15 02:24:00,42.0,35.7,30.01,SSE,164,2.0,6.0,78,0.00,,,0.00,VWS V14.00,2013-03-15 07:24:00,
2013-03-15 02:29:00,42.0,35.7,30.00,SSE,168,0.0,6.0,78,0.00,,,0.00,VWS V14.00,2013-03-15 07:29:00,
2013-03-15 02:34:00,41.9,35.2,30.00,South,171,0.0,6.0,77,0.00,,,0.00,VWS V14.00,2013-03-15 07:34:00,
2013-03-15 02:39:00,41.9,35.2,30.00,South,171,3.0,5.0,77,0.00,,,0.00,VWS V14.00,2013-03-15 07:39:00,
2013-03-15 02:44:00,41.9,35.2,29.99,SSE,165,3.0,6.0,77,0.00,,,0.00,VWS V14.00,2013-03-15 07:44:00,
2013-03-15 02:49:00,41.9,35.2,29.99,SSE,168,2.0,6.0,77,0.00,,,0.00,VWS V14.00,2013-03-15 07:49:00,
2013-03-15 02:54:00,42.0,35.3,29.98,SSE,157,3.0,6.0,77,0.00,,,0.00,VWS V14.00,2013-03-15 07:54:00,
2013-03-15 02:59:00,42.2,35.5,29.98,SE,145,0.0,6.0,77,0.00,,,0.00,VWS V14.00,2013-03-15 07:59:00,
2013-03-15 03:04:00,42.2,35.2,29.98,SSE,157,3.0,6.0,76,0.00,,,0.00,VWS V14.00,2013-03-15 08:04:00,
2013-03-15 03:09:00,42.2,35.2,29.98,SSE,163,3.0,4.0,76,0.00,,,0.00,VWS V14.00,2013-03-15 08:09:00,
2013-03-15 03:14:00,42.2,35.2,29.97,SSE,152,2.0,6.0,76,0.00,,,0.00,VWS V14.00,2013-03-15 08:14:00,
2013-03-15 03:19:00,42.2,35.2,29.97,SSE,152,4.0,6.0,76,0.00,,,0.00,VWS V14.00,2013-03-15 08:19:00,
2013-03-15 03:24:00,42.1,35.1,29.97,SSE,154,0.0,6.0,76,0.00,,,0.00,VWS V14.00,2013-03-15 08:24:00,
2013-03-15 03:29:00,42.1,35.1,29.96,SSE,154,0.0,6.0,76,0.00,,,0.00,VWS V14.00,2013-03-15 08:29:00,
2013-03-15 03:34:00,42.1,35.1,29.96,SSE,153,3.0,6.0,76,0.00,,,0.00,VWS V14.00,2013-03-15 08:34:00,
2013-03-15 03:39:00,42.0,35.0,29.95,SSE,154,0.0,2.0,76,0.00,,,0.00,VWS V14.00,2013-03-15 08:39:00,
2013-03-15 03:44:00,41.9,34.9,29.95,SSE,157,0.0,2.0,76,0.00,,,0.00,VWS V14.00,2013-03-15 08:44:00,
2013-03-15 03:49:00,41.9,34.9,29.95,SSE,157,0.0,2.0,76,0.00,,,0.00,VWS V14.00,2013-03-15 08:49:00,
2013-03-15 03:54:00,41.8,34.8,29.95,SSE,157,0.0,2.0,76,0.00,,,0.00,VWS V14.00,2013-03-15 08:54:00,
2013-03-15 03:59:00,41.7,34.7,29.95,SSE,167,0.0,4.0,76,0.00,,,0.00,VWS V14.00,2013-03-15 08:59:00,
2013-03-15 04:04:00,41.6,34.6,29.95,SSE,157,4.0,4.0,76,0.00,,,0.00,VWS V14.00,2013-03-15 09:04:00,
2013-03-15 04:09:00,41.6,34.6,29.94,South,169,1.0,5.0,76,0.00,,,0.00,VWS V14.00,2013-03-15 09:09:00,
2013-03-15 04:14:00,41.7,34.7,29.94,South,172,3.0,5.0,76,0.00,,,0.00,VWS V14.00,2013-03-15 09:14:00,
2013-03-15 04:19:00,41.6,34.3,29.93,SSE,166,2.0,5.0,75,0.00,,,0.00,VWS V14.00,2013-03-15 09:19:00,
2013-03-15 04:24:00,41.6,34.3,29.93,South,180,4.0,5.0,75,0.00,,,0.00,VWS V14.00,2013-03-15 09:24:00,
2013-03-15 04:29:00,41.6,34.3,29.93,South,175,0.0,5.0,75,0.00,,,0.00,VWS V14.00,2013-03-15 09:29:00,
2013-03-15 04:34:00,41.7,34.0,29.93,South,184,2.0,6.0,74,0.00,,,0.00,VWS V14.00,2013-03-15 09:34:00,
2013-03-15 04:39:00,41.8,34.1,29.93,South,188,3.0,5.0,74,0.00,,,0.00,VWS V14.00,2013-03-15 09:39:00,
2013-03-15 04:44:00,41.8,34.1,29.92,South,178,0.0,5.0,74,0.00,,,0.00,VWS V14.00,2013-03-15 09:44:00,
2013-03-15 04:49:00,41.9,33.9,29.92,South,179,0.0,5.0,73,0.00,,,0.00,VWS V14.00,2013-03-15 09:49:00,
2013-03-15 04:54:00,41.9,33.9,29.92,South,187,2.0,5.0,73,0.00,,,0.00,VWS V14.00,2013-03-15 09:54:00,
2013-03-15 04:59:00,41.9,33.9,29.92,South,178,0.0,5.0,73,0.00,,,0.00,VWS V14.00,2013-03-15 09:59:00,
2013-03-15 05:04:00,41.8,33.8,29.91,South,188,0.0,5.0,73,0.00,,,0.00,VWS V14.00,2013-03-15 10:04:00,
2013-03-15 05:09:00,41.8,33.8,29.91,SSW,195,0.0,3.0,73,0.00,,,0.00,VWS V14.00,2013-03-15 10:09:00,
2013-03-15 05:14:00,41.7,33.7,29.91,South,180,0.0,3.0,73,0.00,,,0.00,VWS V14.00,2013-03-15 10:14:00,
2013-03-15 05:19:00,41.7,34.0,29.91,SW,223,2.0,3.0,74,0.00,,,0.00,VWS V14.00,2013-03-15 10:19:00,
2013-03-15 05:24:00,41.7,34.0,29.91,SSW,212,0.0,4.0,74,0.00,,,0.00,VWS V14.00,2013-03-15 10:24:00,
2013-03-15 05:29:00,41.7,34.0,29.91,SSW,205,0.0,4.0,74,0.00,,,0.00,VWS V14.00,2013-03-15 10:29:00,
2013-03-15 05:34:00,41.8,34.1,29.90,SSW,213,0.0,4.0,74,0.00,,,0.00,VWS V14.00,2013-03-15 10:34:00,
2013-03-15 05:39:00,41.9,34.2,29.90,SSW,207,0.0,1.0,74,0.00,,,0.00,VWS V14.00,2013-03-15 10:39:00,
2013-03-15 05:44:00,41.9,34.2,29.90,SSW,194,0.0,1.0,74,0.00,,,0.00,VWS V14.00,2013-03-15 10:44:00,
2013-03-15 05:48:00,41.9,34.2,29.89,SSW,194,0.0,1.0,74,0.00,,,0.00,VWS V14.00,2013-03-15 10:48:00,
2013-03-15 05:53:00,41.9,34.2,29.89,SSW,193,0.0,2.0,74,0.00,,,0.00,VWS V14.00,2013-03-15 10:53:00,
2013-03-15 05:58:00,41.8,34.1,29.89,South,182,1.0,4.0,74,0.00,,,0.00,VWS V14.00,2013-03-15 10:58:00,
2013-03-15 06:03:00,41.8,34.1,29.89,SSW,195,0.0,4.0,74,0.00,,,0.00,VWS V14.00,2013-03-15 11:03:00,
2013-03-15 06:08:00,41.8,34.1,29.88,South,175,1.0,4.0,74,0.00,,,0.00,VWS V14.00,2013-03-15 11:08:00,
2013-03-15 06:13:00,41.8,34.1,29.88,South,175,2.0,4.0,74,0.00,,,0.00,VWS V14.00,2013-03-15 11:13:00,
2013-03-15 06:18:00,41.7,34.0,29.87,South,182,0.0,4.0,74,0.00,,,0.00,VWS V14.00,2013-03-15 11:18:00,
2013-03-15 06:23:00,41.7,34.0,29.87,South,180,0.0,4.0,74,0.00,,,0.00,VWS V14.00,2013-03-15 11:23:00,
2013-03-15 06:28:00,41.6,33.9,29.87,South,182,1.0,5.0,74,0.00,,,0.00,VWS V14.00,2013-03-15 11:28:00,
2013-03-15 06:33:00,41.7,34.0,29.87,South,170,0.0,5.0,74,0.00,,,0.00,VWS V14.00,2013-03-15 11:33:00,
2013-03-15 06:38:00,41.7,34.0,29.87,SSW,206,0.0,2.0,74,0.00,,,0.00,VWS V14.00,2013-03-15 11:38:00,
2013-03-15 06:43:00,41.8,34.1,29.87,SSW,198,0.0,3.0,74,0.00,,,0.00,VWS V14.00,2013-03-15 11:43:00,
2013-03-15 06:48:00,41.8,34.1,29.87,SSW,212,0.0,4.0,74,0.00,,,0.00,VWS V14.00,2013-03-15 11:48:00,
2013-03-15 06:53:00,42.0,34.3,29.87,SSW,203,3.0,6.0,74,0.00,,,0.00,VWS V14.00,2013-03-15 11:53:00,
2013-03-15 06:58:00,42.1,34.1,29.87,SSW,205,4.0,6.0,73,0.00,,,0.00,VWS V14.00,2013-03-15 11:58:00,
2013-03-15 07:03:00,42.2,34.2,29.86,South,190,2.0,6.0,73,0.00,,,0.00,VWS V14.00,2013-03-15 12:03:00,
2013-03-15 07:08:00,42.3,34.3,29.86,South,183,3.0,4.0,73,0.00,,,0.00,VWS V14.00,2013-03-15 12:08:00,
2013-03-15 07:13:00,42.4,34.4,29.86,SSW,209,1.0,5.0,73,0.00,,,0.00,VWS V14.00,2013-03-15 12:13:00,
2013-03-15 07:18:00,42.5,34.5,29.86,South,178,0.0,5.0,73,0.00,,,0.00,VWS V14.00,2013-03-15 12:18:00,
2013-03-15 07:23:00,42.5,34.5,29.85,South,191,0.0,5.0,73,0.00,,,0.00,VWS V14.00,2013-03-15 12:23:00,
2013-03-15 07:28:00,42.5,34.5,29.85,South,189,0.0,5.0,73,0.00,,,0.00,VWS V14.00,2013-03-15 12:28:00,
2013-03-15 07:33:00,42.5,34.5,29.85,SSW,192,0.0,5.0,73,0.00,,,0.00,VWS V14.00,2013-03-15 12:33:00,
2013-03-15 07:38:00,42.5,34.5,29.85,South,189,0.0,0.0,73,0.00,,,0.00,VWS V14.00,2013-03-15 12:38:00,
2013-03-15 07:43:00,42.5,34.5,29.85,SSW,193,0.0,0.0,73,0.00,,,0.00,VWS V14.00,2013-03-15 12:43:00,
2013-03-15 07:48:00,42.5,34.5,29.84,South,191,0.0,0.0,73,0.00,,,0.00,VWS V14.00,2013-03-15 12:48:00,
2013-03-15 07:53:00,42.5,34.5,29.84,South,172,2.0,5.0,73,0.00,,,0.00,VWS V14.00,2013-03-15 12:53:00,
2013-03-15 07:58:00,42.5,34.5,29.84,South,182,2.0,5.0,73,0.00,,,0.00,VWS V14.00,2013-03-15 12:58:00,
2013-03-15 08:03:00,42.5,34.8,29.84,South,175,3.0,5.0,74,0.00,,,0.00,VWS V14.00,2013-03-15 13:03:00,
2013-03-15 08:08:00,42.5,34.8,29.83,SSE,155,4.0,5.0,74,0.00,,,0.00,VWS V14.00,2013-03-15 13:08:00,
2013-03-15 08:13:00,42.5,34.8,29.83,SSE,155,2.0,5.0,74,0.00,,,0.00,VWS V14.00,2013-03-15 13:13:00,
2013-03-15 08:18:00,42.5,34.8,29.83,South,182,2.0,6.0,74,0.00,,,0.00,VWS V14.00,2013-03-15 13:18:00,
2013-03-15 08:23:00,42.5,34.8,29.83,South,190,0.0,6.0,74,0.00,,,0.00,VWS V14.00,2013-03-15 13:23:00,
2013-03-15 08:28:00,42.6,34.9,29.83,SSW,198,4.0,6.0,74,0.00,,,0.00,VWS V14.00,2013-03-15 13:28:00,
2013-03-15 08:33:00,42.7,35.0,29.83,WSW,248,0.0,6.0,74,0.00,,,0.00,VWS V14.00,2013-03-15 13:33:00,
2013-03-15 08:38:00,42.8,35.1,29.83,SSW,196,6.0,6.0,74,0.00,,,0.00,VWS V14.00,2013-03-15 13:38:00,
2013-03-15 08:43:00,43.0,35.6,29.82,SSW,205,5.0,6.0,75,0.00,,,0.00,VWS V14.00,2013-03-15 13:43:00,
2013-03-15 08:48:00,43.3,35.9,29.82,SSW,203,0.0,6.0,75,0.00,,,0.00,VWS V14.00,2013-03-15 13:48:00,
2013-03-15 08:53:00,43.6,35.9,29.82,SW,214,3.0,6.0,74,0.00,,,0.00,VWS V14.00,2013-03-15 13:53:00,
2013-03-15 08:58:00,43.8,36.1,29.82,SSW,202,3.0,6.0,74,0.00,,,0.00,VWS V14.00,2013-03-15 13:58:00,
2013-03-15 09:03:00,44.1,36.4,29.81,SSW,205,3.0,7.0,74,0.00,,,0.00,VWS V14.00,2013-03-15 14:03:00,
2013-03-15 09:08:00,44.3,36.5,29.81,WSW,244,5.0,7.0,74,0.00,,,0.00,VWS V14.00,2013-03-15 14:08:00,
2013-03-15 09:13:00,44.7,36.9,29.81,SW,215,4.0,9.0,74,0.00,,,0.00,VWS V14.00,2013-03-15 14:13:00,
2013-03-15 09:18:00,45.1,37.3,29.81,SW,229,9.0,9.0,74,0.00,,,0.00,VWS V14.00,2013-03-15 14:18:00,
2013-03-15 09:23:00,45.6,37.5,29.81,WSW,245,7.0,11.0,73,0.00,,,0.00,VWS V14.00,2013-03-15 14:23:00,
2013-03-15 09:28:00,46.1,37.9,29.80,SW,222,6.0,11.0,73,0.00,,,0.00,VWS V14.00,2013-03-15 14:28:00,
2013-03-15 09:33:00,46.8,38.3,29.81,SW,230,1.0,11.0,72,0.00,,,0.00,VWS V14.00,2013-03-15 14:33:00,
2013-03-15 09:38:00,47.2,38.3,29.80,WSW,242,5.0,9.0,71,0.00,,,0.00,VWS V14.00,2013-03-15 14:38:00,
2013-03-15 09:43:00,47.6,38.7,29.80,WSW,252,2.0,9.0,71,0.00,,,0.00,VWS V14.00,2013-03-15 14:43:00,
2013-03-15 09:48:00,48.1,39.2,29.80,WSW,252,7.0,11.0,71,0.00,,,0.00,VWS V14.00,2013-03-15 14:48:00,
2013-03-15 09:53:00,48.5,39.5,29.80,SW,229,3.0,12.0,71,0.00,,,0.00,VWS V14.00,2013-03-15 14:53:00,
2013-03-15 09:58:00,49.0,40.0,29.80,WSW,247,4.0,12.0,71,0.00,,,0.00,VWS V14.00,2013-03-15 14:58:00,
2013-03-15 10:03:00,49.6,40.6,29.80,West,263,7.0,12.0,71,0.00,,,0.00,VWS V14.00,2013-03-15 15:03:00,
2013-03-15 10:08:00,50.1,40.7,29.80,WSW,252,9.0,11.0,70,0.00,,,0.00,VWS V14.00,2013-03-15 15:08:00,
2013-03-15 10:13:00,50.6,40.8,29.80,SW,234,4.0,14.0,69,0.00,,,0.00,VWS V14.00,2013-03-15 15:13:00,
2013-03-15 10:18:00,51.2,41.4,29.80,WSW,241,6.0,14.0,69,0.00,,,0.00,VWS V14.00,2013-03-15 15:18:00,
2013-03-15 10:23:00,51.7,41.5,29.80,West,264,5.0,14.0,68,0.00,,,0.00,VWS V14.00,2013-03-15 15:23:00,
2013-03-15 10:28:00,52.3,42.1,29.79,West,269,5.0,14.0,68,0.00,,,0.00,VWS V14.00,2013-03-15 15:28:00,
2013-03-15 10:33:00,52.9,41.9,29.79,West,263,6.0,14.0,66,0.00,,,0.00,VWS V14.00,2013-03-15 15:33:00,
2013-03-15 10:38:00,53.2,41.8,29.79,WSW,246,9.0,14.0,65,0.00,,,0.00,VWS V14.00,2013-03-15 15:38:00,
2013-03-15 10:43:00,53.2,42.2,29.79,WSW,251,3.0,14.0,66,0.00,,,0.00,VWS V14.00,2013-03-15 15:43:00,
2013-03-15 10:48:00,53.7,42.6,29.79,WSW,250,3.0,14.0,66,0.00,,,0.00,VWS V14.00,2013-03-15 15:48:00,
2013-03-15 10:53:00,54.2,42.7,29.78,West,277,12.0,14.0,65,0.00,,,0.00,VWS V14.00,2013-03-15 15:53:00,
2013-03-15 10:58:00,54.5,43.0,29.78,WSW,252,8.0,14.0,65,0.00,,,0.00,VWS V14.00,2013-03-15 15:58:00,
2013-03-15 11:03:00,55.1,43.2,29.78,WSW,237,9.0,14.0,64,0.00,,,0.00,VWS V14.00,2013-03-15 16:03:00,
2013-03-15 11:08:00,55.8,43.8,29.78,West,265,7.0,9.0,64,0.00,,,0.00,VWS V14.00,2013-03-15 16:08:00,
2013-03-15 11:13:00,56.2,43.8,29.78,West,275,10.0,14.0,63,0.00,,,0.00,VWS V14.00,2013-03-15 16:13:00,
2013-03-15 11:18:00,57.1,44.6,29.78,WSW,256,10.0,14.0,63,0.00,,,0.00,VWS V14.00,2013-03-15 16:18:00,
2013-03-15 11:23:00,57.6,44.7,29.78,WNW,288,3.0,14.0,62,0.00,,,0.00,VWS V14.00,2013-03-15 16:23:00,
2013-03-15 11:28:00,58.0,45.1,29.77,WSW,250,7.0,14.0,62,0.00,,,0.00,VWS V14.00,2013-03-15 16:28:00,
2013-03-15 11:33:00,58.4,45.0,29.77,SW,215,6.0,14.0,61,0.00,,,0.00,VWS V14.00,2013-03-15 16:33:00,
2013-03-15 11:38:00,58.9,45.1,29.77,WNW,286,9.0,10.0,60,0.00,,,0.00,VWS V14.00,2013-03-15 16:38:00,
2013-03-15 11:43:00,59.0,45.2,29.77,West,279,0.0,10.0,60,0.00,,,0.00,VWS V14.00,2013-03-15 16:43:00,
2013-03-15 11:48:00,59.6,44.4,29.77,WNW,287,0.0,11.0,57,0.00,,,0.00,VWS V14.00,2013-03-15 16:48:00,
2013-03-15 11:53:00,60.0,43.8,29.77,WNW,287,11.0,14.0,55,0.00,,,0.00,VWS V14.00,2013-03-15 16:53:00,
2013-03-15 11:58:00,60.0,43.8,29.77,West,268,5.0,14.0,55,0.00,,,0.00,VWS V14.00,2013-03-15 16:58:00,
2013-03-15 12:03:00,60.4,44.2,29.77,West,281,4.0,14.0,55,0.00,,,0.00,VWS V14.00,2013-03-15 17:03:00,
2013-03-15 12:08:00,60.5,43.8,29.77,WNW,292,5.0,12.0,54,0.00,,,0.00,VWS V14.00,2013-03-15 17:08:00,
2013-03-15 12:13:00,60.9,45.1,29.77,WNW,299,0.0,12.0,56,0.00,,,0.00,VWS V14.00,2013-03-15 17:13:00,
2013-03-15 12:18:00,61.7,45.4,29.77,WNW,296,0.0,12.0,55,0.00,,,0.00,VWS V14.00,2013-03-15 17:18:00,
2013-03-15 12:23:00,62.1,45.3,29.77,NW,326,1.0,12.0,54,0.00,,,0.00,VWS V14.00,2013-03-15 17:23:00,
2013-03-15 12:28:00,62.3,44.5,29.76,West,281,4.0,12.0,52,0.00,,,0.00,VWS V14.00,2013-03-15 17:28:00,
2013-03-15 12:33:00,62.5,45.2,29.76,NNW,337,0.0,12.0,53,0.00,,,0.00,VWS V14.00,2013-03-15 17:33:00,
2013-03-15 12:38:00,62.7,45.3,29.76,North,360,5.0,6.0,53,0.00,,,0.00,VWS V14.00,2013-03-15 17:38:00,
2013-03-15 12:43:00,63.2,45.8,29.76,North,360,0.0,6.0,53,0.00,,,0.00,VWS V14.00,2013-03-15 17:43:00,
2013-03-15 12:48:00,63.5,45.6,29.76,North,5,0.0,6.0,52,0.00,,,0.00,VWS V14.00,2013-03-15 17:48:00,
2013-03-15 12:53:00,64.0,46.0,29.76,NNE,26,0.0,6.0,52,0.00,,,0.00,VWS V14.00,2013-03-15 17:53:00,
2013-03-15 12:58:00,64.3,45.3,29.76,North,355,0.0,6.0,50,0.00,,,0.00,VWS V14.00,2013-03-15 17:58:00,
2013-03-15 13:03:00,64.8,46.3,29.76,NE,45,0.0,6.0,51,0.00,,,0.00,VWS V14.00,2013-03-15 18:03:00,
2013-03-15 13:08:00,64.8,45.7,29.76,NNE,21,0.0,2.0,50,0.00,,,0.00,VWS V14.00,2013-03-15 18:08:00,
2013-03-15 13:13:00,65.0,44.8,29.76,NNE,30,0.0,6.0,48,0.00,,,0.00,VWS V14.00,2013-03-15 18:13:00,
2013-03-15 13:17:00,65.1,45.5,29.76,NE,42,0.0,6.0,49,0.00,,,0.00,VWS V14.00,2013-03-15 18:17:00,
2013-03-15 13:22:00,65.5,45.3,29.76,NNE,26,0.0,6.0,48,0.00,,,0.00,VWS V14.00,2013-03-15 18:22:00,
2013-03-15 13:27:00,65.9,45.1,29.76,NNW,331,0.0,6.0,47,0.00,,,0.00,VWS V14.00,2013-03-15 18:27:00,
2013-03-15 13:32:00,66.3,45.5,29.76,NNW,336,0.0,6.0,47,0.00,,,0.00,VWS V14.00,2013-03-15 18:32:00,
2013-03-15 13:37:00,67.3,45.8,29.75,NW,309,0.0,5.0,46,0.00,,,0.00,VWS V14.00,2013-03-15 18:37:00,
2013-03-15 13:42:00,67.6,44.9,29.75,North,11,0.0,5.0,44,0.00,,,0.00,VWS V14.00,2013-03-15 18:42:00,
2013-03-15 13:47:00,67.6,44.3,29.75,NNE,25,0.0,7.0,43,0.00,,,0.00,VWS V14.00,2013-03-15 18:47:00,
2013-03-15 13:52:00,67.4,45.3,29.75,NNE,22,0.0,7.0,45,0.00,,,0.00,VWS V14.00,2013-03-15 18:52:00,
2013-03-15 13:57:00,67.3,45.8,29.74,WNW,302,0.0,7.0,46,0.00,,,0.00,VWS V14.00,2013-03-15 18:57:00,
2013-03-15 14:02:00,67.2,45.7,29.74,NW,313,0.0,7.0,46,0.00,,,0.00,VWS V14.00,2013-03-15 19:02:00,
2013-03-15 14:07:00,67.0,45.0,29.74,North,5,0.0,1.0,45,0.00,,,0.00,VWS V14.00,2013-03-15 19:07:00,
2013-03-15 14:12:00,66.6,45.8,29.74,North,360,0.0,1.0,47,0.00,,,0.00,VWS V14.00,2013-03-15 19:12:00,
2013-03-15 14:17:00,66.2,45.4,29.74,NNE,26,0.0,1.0,47,0.00,,,0.00,VWS V14.00,2013-03-15 19:17:00,
2013-03-15 14:22:00,65.9,45.1,29.74,NNE,33,0.0,1.0,47,0.00,,,0.00,VWS V14.00,2013-03-15 19:22:00,
2013-03-15 14:27:00,65.6,45.4,29.73,NE,38,0.0,1.0,48,0.00,,,0.00,VWS V14.00,2013-03-15 19:27:00,
2013-03-15 14:32:00,65.3,45.7,29.73,NE,38,0.0,1.0,49,0.00,,,0.00,VWS V14.00,2013-03-15 19:32:00,
2013-03-15 14:37:00,65.3,46.2,29.73,NE,41,0.0,1.0,50,0.00,,,0.00,VWS V14.00,2013-03-15 19:37:00,
2013-03-15 14:42:00,65.4,45.8,29.72,NE,46,0.0,1.0,49,0.00,,,0.00,VWS V14.00,2013-03-15 19:42:00,
2013-03-15 14:47:00,65.5,45.8,29.72,NE,48,0.0,1.0,49,0.00,,,0.00,VWS V14.00,2013-03-15 19:47:00,
2013-03-15 14:52:00,65.3,46.2,29.72,ENE,65,0.0,1.0,50,0.00,,,0.00,VWS V14.00,2013-03-15 19:52:00,
2013-03-15 14:57:00,65.2,46.6,29.72,ENE,57,0.0,1.0,51,0.00,,,0.00,VWS V14.00,2013-03-15 19:57:00,
2013-03-15 15:02:00,65.7,46.6,29.72,NNE,30,0.0,1.0,50,0.00,,,0.00,VWS V14.00,2013-03-15 20:02:00,
2013-03-15 15:07:00,66.1,46.9,29.72,NNE,30,0.0,0.0,50,0.00,,,0.00,VWS V14.00,2013-03-15 20:07:00,
2013-03-15 15:12:00,66.1,46.9,29.71,NNE,30,0.0,1.0,50,0.00,,,0.00,VWS V14.00,2013-03-15 20:12:00,
2013-03-15 15:17:00,66.0,46.8,29.71,NNE,30,0.0,1.0,50,0.00,,,0.00,VWS V14.00,2013-03-15 20:17:00,
2013-03-15 15:22:00,66.0,46.8,29.71,NE,53,2.0,3.0,50,0.00,,,0.00,VWS V14.00,2013-03-15 20:22:00,
2013-03-15 15:27:00,65.9,47.3,29.70,NE,49,3.0,5.0,51,0.00,,,0.00,VWS V14.00,2013-03-15 20:27:00,
2013-03-15 15:32:00,66.0,46.8,29.70,North,5,3.0,7.0,50,0.00,,,0.00,VWS V14.00,2013-03-15 20:32:00,
2013-03-15 15:37:00,66.0,46.8,29.70,NNE,13,0.0,6.0,50,0.00,,,0.00,VWS V14.00,2013-03-15 20:37:00,
2013-03-15 15:42:00,66.0,46.8,29.70,NE,42,0.0,6.0,50,0.00,,,0.00,VWS V14.00,2013-03-15 20:42:00,
2013-03-15 15:47:00,65.9,47.3,29.70,NE,49,4.0,6.0,51,0.00,,,0.00,VWS V14.00,2013-03-15 20:47:00,
2013-03-15 15:52:00,65.7,47.1,29.71,NE,55,0.0,6.0,51,0.00,,,0.00,VWS V14.00,2013-03-15 20:52:00,
2013-03-15 15:57:00,65.6,47.0,29.70,NNE,19,2.0,7.0,51,0.00,,,0.00,VWS V14.00,2013-03-15 20:57:00,
2013-03-15 16:02:00,65.7,47.6,29.70,NNE,13,6.0,10.0,52,0.00,,,0.00,VWS V14.00,2013-03-15 21:02:00,
2013-03-15 16:07:00,65.7,47.1,29.71,NE,53,4.0,9.0,51,0.00,,,0.00,VWS V14.00,2013-03-15 21:07:00,
2013-03-15 16:12:00,65.7,47.6,29.71,NE,49,0.0,9.0,52,0.00,,,0.00,VWS V14.00,2013-03-15 21:12:00,
2013-03-15 16:17:00,65.6,47.5,29.70,NNW,348,0.0,9.0,52,0.00,,,0.00,VWS V14.00,2013-03-15 21:17:00,
2013-03-15 16:22:00,65.6,48.0,29.70,NNW,336,0.0,9.0,53,0.00,,,0.00,VWS V14.00,2013-03-15 21:22:00,
2013-03-15 16:27:00,65.8,48.2,29.70,NNE,13,1.0,9.0,53,0.00,,,0.00,VWS V14.00,2013-03-15 21:27:00,
2013-03-15 16:32:00,65.9,48.3,29.71,NE,49,0.0,9.0,53,0.00,,,0.00,VWS V14.00,2013-03-15 21:32:00,
2013-03-15 16:37:00,66.0,48.4,29.71,NNW,346,0.0,5.0,53,0.00,,,0.00,VWS V14.00,2013-03-15 21:37:00,
2013-03-15 16:42:00,66.0,47.9,29.71,NNW,331,4.0,6.0,52,0.00,,,0.00,VWS V14.00,2013-03-15 21:42:00,
2013-03-15 16:47:00,65.7,48.1,29.71,NNW,346,4.0,7.0,53,0.00,,,0.00,VWS V14.00,2013-03-15 21:47:00,
2013-03-15 16:52:00,65.7,49.1,29.71,NNW,337,3.0,7.0,55,0.00,,,0.00,VWS V14.00,2013-03-15 21:52:00,
2013-03-15 16:57:00,65.7,48.1,29.71,North,5,0.0,7.0,53,0.00,,,0.00,VWS V14.00,2013-03-15 21:57:00,
2013-03-15 17:02:00,65.6,48.5,29.71,NNW,335,3.0,7.0,54,0.00,,,0.00,VWS V14.00,2013-03-15 22:02:00,
2013-03-15 17:07:00,65.6,49.0,29.71,NNW,340,0.0,7.0,55,0.00,,,0.00,VWS V14.00,2013-03-15 22:07:00,
2013-03-15 17:12:00,65.5,48.9,29.71,NNW,345,0.0,7.0,55,0.00,,,0.00,VWS V14.00,2013-03-15 22:12:00,
2013-03-15 17:17:00,65.2,48.2,29.70,NNE,14,0.0,7.0,54,0.00,,,0.00,VWS V14.00,2013-03-15 22:17:00,
2013-03-15 17:22:00,65.2,48.6,29.70,NE,41,0.0,7.0,55,0.00,,,0.00,VWS V14.00,2013-03-15 22:22:00,
2013-03-15 17:27:00,65.0,48.9,29.71,NW,326,3.0,7.0,56,0.00,,,0.00,VWS V14.00,2013-03-15 22:27:00,
2013-03-15 17:32:00,64.8,48.8,29.70,NNW,327,0.0,7.0,56,0.00,,,0.00,VWS V14.00,2013-03-15 22:32:00,
2013-03-15 17:37:00,64.7,48.7,29.71,NNW,337,0.0,3.0,56,0.00,,,0.00,VWS V14.00,2013-03-15 22:37:00,
2013-03-15 17:42:00,64.4,48.4,29.71,NW,314,0.0,6.0,56,0.00,,,0.00,VWS V14.00,2013-03-15 22:42:00,
2013-03-15 17:47:00,63.9,48.4,29.70,NNW,344,0.0,6.0,57,0.00,,,0.00,VWS V14.00,2013-03-15 22:47:00,
2013-03-15 17:52:00,63.3,48.3,29.70,North,350,0.0,6.0,58,0.00,,,0.00,VWS V14.00,2013-03-15 22:52:00,
2013-03-15 17:57:00,62.9,48.4,29.70,NNW,331,0.0,6.0,59,0.00,,,0.00,VWS V14.00,2013-03-15 22:57:00,
2013-03-15 18:02:00,62.5,48.4,29.71,NW,323,0.0,7.0,60,0.00,,,0.00,VWS V14.00,2013-03-15 23:02:00,
2013-03-15 18:07:00,62.0,48.0,29.70,NNW,342,1.0,9.0,60,0.00,,,0.00,VWS V14.00,2013-03-15 23:07:00,
2013-03-15 18:12:00,61.2,47.7,29.70,NNW,336,3.0,11.0,61,0.00,,,0.00,VWS V14.00,2013-03-15 23:12:00,
2013-03-15 18:17:00,60.6,48.0,29.70,North,355,0.0,11.0,63,0.00,,,0.00,VWS V14.00,2013-03-15 23:17:00,
2013-03-15 18:22:00,60.3,47.2,29.71,NNW,337,4.0,11.0,62,0.00,,,0.00,VWS V14.00,2013-03-15 23:22:00,
2013-03-15 18:27:00,60.0,47.4,29.71,NNE,12,0.0,11.0,63,0.00,,,0.00,VWS V14.00,2013-03-15 23:27:00,
2013-03-15 18:32:00,59.8,47.2,29.71,North,351,4.0,11.0,63,0.00,,,0.00,VWS V14.00,2013-03-15 23:32:00,
2013-03-15 18:37:00,59.3,46.7,29.70,NNE,12,6.0,11.0,63,0.00,,,0.00,VWS V14.00,2013-03-15 23:37:00,
2013-03-15 18:42:00,59.0,46.8,29.71,North,5,4.0,11.0,64,0.00,,,0.00,VWS V14.00,2013-03-15 23:42:00,
2013-03-15 18:47:00,58.6,46.9,29.71,North,349,0.0,11.0,65,0.00,,,0.00,VWS V14.00,2013-03-15 23:47:00,
2013-03-15 18:52:00,58.2,46.5,29.72,North,355,0.0,11.0,65,0.00,,,0.00,VWS V14.00,2013-03-15 23:52:00,
2013-03-15 18:57:00,57.7,46.0,29.72,NNE,17,6.0,11.0,65,0.00,,,0.00,VWS V14.00,2013-03-15 23:57:00,
2013-03-15 19:02:00,57.1,45.9,29.72,NE,38,3.0,11.0,66,0.00,,,0.00,VWS V14.00,2013-03-16 00:02:00,
2013-03-15 19:07:00,56.7,45.9,29.72,NNE,15,0.0,5.0,67,0.00,,,0.00,VWS V14.00,2013-03-16 00:07:00,
2013-03-15 19:12:00,56.4,45.6,29.72,NNE,15,8.0,8.0,67,0.00,,,0.00,VWS V14.00,2013-03-16 00:12:00,
2013-03-15 19:17:00,55.9,45.5,29.72,North,5,3.0,8.0,68,0.00,,,0.00,VWS V14.00,2013-03-16 00:17:00,
2013-03-15 19:22:00,55.5,45.5,29.72,North,355,5.0,10.0,69,0.00,,,0.00,VWS V14.00,2013-03-16 00:22:00,
2013-03-15 19:27:00,55.0,45.4,29.72,NNE,26,0.0,10.0,70,0.00,,,0.00,VWS V14.00,2013-03-16 00:27:00,
2013-03-15 19:32:00,54.6,45.4,29.71,NNE,32,3.0,10.0,71,0.00,,,0.00,VWS V14.00,2013-03-16 00:32:00,
2013-03-15 19:37:00,54.3,45.5,29.71,NNE,22,0.0,1.0,72,0.00,,,0.00,VWS V14.00,2013-03-16 00:37:00,
2013-03-15 19:42:00,54.0,45.2,29.71,NNE,26,4.0,7.0,72,0.00,,,0.00,VWS V14.00,2013-03-16 00:42:00,
2013-03-15 19:47:00,53.8,45.0,29.72,NNE,15,0.0,7.0,72,0.00,,,0.00,VWS V14.00,2013-03-16 00:47:00,
2013-03-15 19:52:00,53.6,45.2,29.72,NNE,14,0.0,7.0,73,0.00,,,0.00,VWS V14.00,2013-03-16 00:52:00,
2013-03-15 19:57:00,53.3,44.9,29.72,North,5,0.0,7.0,73,0.00,,,0.00,VWS V14.00,2013-03-16 00:57:00,
2013-03-15 20:02:00,53.1,44.7,29.72,North,355,0.0,8.0,73,0.00,,,0.00,VWS V14.00,2013-03-16 01:02:00,
2013-03-15 20:07:00,52.8,44.8,29.72,North,360,1.0,9.0,74,0.00,,,0.00,VWS V14.00,2013-03-16 01:07:00,
2013-03-15 20:12:00,52.6,44.6,29.72,North,5,3.0,12.0,74,0.00,,,0.00,VWS V14.00,2013-03-16 01:12:00,
2013-03-15 20:17:00,52.3,44.3,29.73,North,9,5.0,12.0,74,0.00,,,0.00,VWS V14.00,2013-03-16 01:17:00,
2013-03-15 20:22:00,52.1,44.4,29.74,North,355,4.0,12.0,75,0.00,,,0.00,VWS V14.00,2013-03-16 01:22:00,
2013-03-15 20:27:00,51.9,44.6,29.74,North,360,5.0,12.0,76,0.00,,,0.00,VWS V14.00,2013-03-16 01:27:00,
2013-03-15 20:32:00,51.6,44.3,29.75,North,9,5.0,14.0,76,0.00,,,0.00,VWS V14.00,2013-03-16 01:32:00,
2013-03-15 20:37:00,51.3,44.3,29.75,North,355,0.0,6.0,77,0.00,,,0.00,VWS V14.00,2013-03-16 01:37:00,
2013-03-15 20:42:00,51.0,44.4,29.76,North,5,2.0,10.0,78,0.00,,,0.00,VWS V14.00,2013-03-16 01:42:00,
2013-03-15 20:47:00,50.7,44.1,29.76,NNE,19,4.0,10.0,78,0.00,,,0.00,VWS V14.00,2013-03-16 01:47:00,
2013-03-15 20:52:00,50.3,44.0,29.76,NE,36,4.0,12.0,79,0.00,,,0.00,VWS V14.00,2013-03-16 01:52:00,
2013-03-15 20:57:00,49.9,44.0,29.77,North,360,11.0,13.0,80,0.00,,,0.00,VWS V14.00,2013-03-16 01:57:00,
2013-03-15 21:02:00,49.6,43.7,29.76,North,351,4.0,13.0,80,0.00,,,0.00,VWS V14.00,2013-03-16 02:02:00,
2013-03-15 21:07:00,49.2,43.3,29.76,NNE,30,3.0,10.0,80,0.00,,,0.00,VWS V14.00,2013-03-16 02:07:00,
2013-03-15 21:12:00,49.0,43.4,29.77,North,360,5.0,10.0,81,0.00,,,0.00,VWS V14.00,2013-03-16 02:12:00,
2013-03-15 21:17:00,48.7,43.1,29.77,NNE,24,6.0,11.0,81,0.00,,,0.00,VWS V14.00,2013-03-16 02:17:00,
2013-03-15 21:22:00,48.5,43.3,29.77,NNE,22,1.0,11.0,82,0.00,,,0.00,VWS V14.00,2013-03-16 02:22:00,
2013-03-15 21:27:00,48.3,43.1,29.78,NNE,13,3.0,11.0,82,0.00,,,0.00,VWS V14.00,2013-03-16 02:27:00,
2013-03-15 21:32:00,48.1,42.9,29.78,NNE,32,0.0,11.0,82,0.00,,,0.00,VWS V14.00,2013-03-16 02:32:00,
2013-03-15 21:37:00,47.8,42.6,29.78,NNE,20,7.0,10.0,82,0.00,,,0.00,VWS V14.00,2013-03-16 02:37:00,
2013-03-15 21:42:00,47.5,42.6,29.78,NNW,343,7.0,12.0,83,0.00,,,0.00,VWS V14.00,2013-03-16 02:42:00,
2013-03-15 21:47:00,47.2,42.3,29.79,North,355,9.0,12.0,83,0.00,,,0.00,VWS V14.00,2013-03-16 02:47:00,
2013-03-15 21:52:00,46.9,42.0,29.79,NW,304,0.0,12.0,83,0.00,,,0.00,VWS V14.00,2013-03-16 02:52:00,
2013-03-15 21:57:00,46.6,41.7,29.80,NNW,330,0.0,12.0,83,0.00,,,0.00,VWS V14.00,2013-03-16 02:57:00,
2013-03-15 22:02:00,46.3,41.7,29.80,North,9,2.0,12.0,84,0.00,,,0.00,VWS V14.00,2013-03-16 03:02:00,
2013-03-15 22:07:00,46.1,41.5,29.81,NNW,336,0.0,7.0,84,0.00,,,0.00,VWS V14.00,2013-03-16 03:07:00,
2013-03-15 22:12:00,46.0,41.4,29.81,North,349,2.0,7.0,84,0.00,,,0.00,VWS V14.00,2013-03-16 03:12:00,
2013-03-15 22:17:00,45.8,41.2,29.81,NNE,17,0.0,7.0,84,0.00,,,0.00,VWS V14.00,2013-03-16 03:17:00,
2013-03-15 22:22:00,45.6,41.0,29.81,NNW,340,4.0,7.0,84,0.00,,,0.00,VWS V14.00,2013-03-16 03:22:00,
2013-03-15 22:27:00,45.3,40.8,29.82,North,5,0.0,10.0,84,0.00,,,0.00,VWS V14.00,2013-03-16 03:27:00,
2013-03-15 22:32:00,45.1,40.6,29.82,NNW,346,1.0,10.0,84,0.00,,,0.00,VWS V14.00,2013-03-16 03:32:00,
2013-03-15 22:37:00,45.0,40.8,29.82,North,10,0.0,9.0,85,0.00,,,0.00,VWS V14.00,2013-03-16 03:37:00,
2013-03-15 22:42:00,44.9,40.7,29.83,NNW,341,5.0,9.0,85,0.00,,,0.00,VWS V14.00,2013-03-16 03:42:00,
2013-03-15 22:47:00,44.9,40.7,29.83,NNW,333,4.0,10.0,85,0.00,,,0.00,VWS V14.00,2013-03-16 03:47:00,
2013-03-15 22:52:00,45.0,41.1,29.83,NNW,347,5.0,11.0,86,0.00,,,0.00,VWS V14.00,2013-03-16 03:52:00,
2013-03-15 22:57:00,44.9,40.7,29.83,NNW,338,4.0,11.0,85,0.00,,,0.00,VWS V14.00,2013-03-16 03:57:00,
2013-03-15 23:00:00,44.8,40.6,29.83,NNW,348,5.0,11.0,85,0.00,,,0.00,VWS V14.00,2013-03-16 04:00:00,
2013-03-15 23:01:00,44.7,40.5,29.83,NE,41,0.0,11.0,85,0.00,,,0.00,VWS V14.00,2013-03-16 04:01:00,
2013-03-15 23:06:00,44.6,40.4,29.83,North,5,2.0,14.0,85,0.00,,,0.00,VWS V14.00,2013-03-16 04:06:00,
2013-03-15 23:11:00,44.5,40.3,29.83,WNW,291,3.0,14.0,85,0.00,,,0.00,VWS V14.00,2013-03-16 04:11:00,
2013-03-15 23:16:00,44.3,40.1,29.83,North,5,5.0,14.0,85,0.00,,,0.00,VWS V14.00,2013-03-16 04:16:00,
2013-03-15 23:21:00,44.1,39.6,29.84,NNW,337,10.0,14.0,84,0.00,,,0.00,VWS V14.00,2013-03-16 04:21:00,
2013-03-15 23:26:00,44.0,39.5,29.84,North,9,2.0,14.0,84,0.00,,,0.00,VWS V14.00,2013-03-16 04:26:00,
2013-03-15 23:31:00,43.8,39.3,29.84,NNW,341,4.0,14.0,84,0.00,,,0.00,VWS V14.00,2013-03-16 04:31:00,
2013-03-15 23:36:00,43.6,39.4,29.84,NNW,348,0.0,10.0,85,0.00,,,0.00,VWS V14.00,2013-03-16 04:36:00,
2013-03-15 23:41:00,43.5,39.3,29.84,NNW,344,4.0,10.0,85,0.00,,,0.00,VWS V14.00,2013-03-16 04:41:00,
2013-03-15 23:46:00,43.3,39.1,29.84,North,355,1.0,10.0,85,0.00,,,0.00,VWS V14.00,2013-03-16 04:46:00,
2013-03-15 23:51:00,43.1,38.9,29.84,NW,315,1.0,10.0,85,0.00,,,0.00,VWS V14.00,2013-03-16 04:51:00,
2013-03-15 23:56:00,42.9,38.7,29.84,North,355,0.0,10.0,85,0.00,,,0.00,VWS V14.00,2013-03-16 04:56:00,